Regional Weather Roundup
Issued by NWS State College, PA

Home | Current Version | Previous Version | Text Only | Print | Product List | Glossary On
Versions: 1 2 3 4 5 6 7 8 9 10 11 12 13 14 15 16 17 18 19 20 21 22 23 24 25 26 27 28 29 30 31 32 33 34 35 36 37 38 39 40 41 42 43 44 45 46 47 48 49 50
000
ASUS41 KCTP 272010
RWRCTP

REGIONAL WEATHER ROUNDUP
NATIONAL WEATHER SERVICE STATE COLLEGE PA
400 PM EDT TUE SEP 27 2016

Note: "fair" indicates few or no clouds below 12,000 feet with no
significant weather and/or obstructions to visibility.

* = STATION THAT DOES NOT REPORT PRECIPITATION /E.G. RAIN...SNOW...ETC/
    THUNDER OR FOG.

PAZ002>004-007>009-013>016-020>023-029>032-272100-
WESTERN PENNSYLVANIA

CITY           SKY/WX    TMP DP  RH WIND       PRES   REMARKS
ERIE           MOSUNNY   72  42  34 SW15G23   29.79F
MEADVILLE      MOSUNNY   68  39  34 SW12G24   29.83F
FRANKLIN*        N/A     66  37  34 SW14G23   29.87S
NEW CASTLE     FAIR      70  40  33 SW13      29.85F
BEAVER COUNTY  SUNNY     73  39  29 SW10G20   29.86F
BUTLER*        SUNNY     70  37  30 SW14      29.90R
PITTSBURGH INT MOSUNNY   71  34  25 SW12G24   29.86F
PITTSBURGH     SUNNY     71  33  24 SW15      29.87F
INDIANA*       SUNNY     70  41  35 W10G17    29.91S
LATROBE        SUNNY     70  43  37 W14G25    29.89F
WASHINGTON CO* SUNNY     72  41  33 SW7G20    29.89S
$$

PAZ004>006-010>012-017>019-024>028-033>037-041-042-045-046-049>053-272100-
CENTRAL PENNSYLVANIA

CITY           SKY/WX    TMP DP  RH WIND       PRES   REMARKS
BRADFORD       MOSUNNY   64  36  35 SW10G17   29.87F
DUBOIS         MOSUNNY   67  34  29 SW16G24   29.87F
CLEARFIELD     SUNNY     70  40  33 W14G20    29.89S
JOHNSTOWN      SUNNY     67  41  38 W13       29.91F
ALTOONA        SUNNY     71  41  33 SW12      29.89F
STATE COLLEGE  MOSUNNY   70  41  35 SW9G18    29.89F
WILLIAMSPORT   MOSUNNY   73  48  41 VRB6      29.85F
SELINSGROVE    MOSUNNY   74  46  36 SW8       29.88F
FT INDIANTOWN  SUNNY     73  45  37 SW9       29.89F
CAPITAL CITY   SUNNY     76  41  28 W6        29.88F
HARRISBURG     MOSUNNY   76  46  34 CALM      29.87F
YORK           SUNNY     74  46  36 W6        29.89F
$$

PAZ038>040-043-044-047-048-054-055-060>062-067>071-272100-
EASTERN PENNSYLVANIA

CITY           SKY/WX    TMP DP  RH WIND       PRES   REMARKS
SCRANTON       SUNNY     72  44  36 SW9       29.88F
MOUNT POCONO   MOSUNNY   64  48  56 SW10      29.92S
ALLENTOWN      SUNNY     74  46  36 SW7       29.89F
QUAKERTOWN*    CLEAR     73  45  35 SW6       29.90F
READING        SUNNY     74  45  35 SW9       29.88F
LANCASTER      SUNNY     75  46  35 W9        29.89F
COATESVILLE    CLEAR     72  46  40 CALM      29.91F
POTTSTOWN      SUNNY     74  47  38 CALM      29.91F
BLUE BELL      SUNNY     73  46  38 W8        29.88F
DOYLESTOWN     SUNNY     76  48  37 W6        29.89F
WILLOW GROVE   NOT AVBL
NORTH PHILA    MOSUNNY   77  49  37 SW7       29.91F
PHILADELPHIA   PTSUNNY   74  49  41 SW7       29.90F
$$




USA.gov is the U.S. government's official web portal to all federal, state and local government web resources and services.